Tracking 28790 objects as of 19-Apr-2024
HD Live streaming from Space Station
objects crossing your sky now

DMSP 5D-2 F13 DEB

Track DMSP 5D-2 F13 DEB now!
10-day predictions


NORAD ID: 42289
Int'l Code: 1995-015HF
Perigee: 773.2 km
Apogee: 841.3 km
Inclination: 98.9 °
Period: 100.9 minutes
Semi major axis: 7178 km
RCS: Unknown
Launch date: March 24, 1995
Source: United States (US)
Launch site: AIR FORCE WESTERN TEST RANGE (AFWTR)

Note: This is SATELLITE DEBRIS
Your satellite tracking list
Your tracking list is empty




NASA's NSSDC Master Catalog

Two Line Element Set (TLE):
1 42289U 95015HF  24106.76276163  .00022131  00000-0  88928-2 0  9992
2 42289  98.8922  95.1219 0047381 134.1688 226.3402 14.27495761459784
Source of the keplerian elements: AFSPC